TJS-9

Last updated on Thu Nov 21 2024 00:02:44 GMT+0000 (Coordinated Universal Time)

1 50574U 21135A 24325.57797780 -.00000297 00000+0 00000+0 0 9996 2 50574 0.0703 264.6269 0003206 304.6284 195.9932 1.00276859 10676
UTC large
Height (km)
Speed (km/s)
/
Latitude / Longitude
Inclination (degrees)
Orbital Period (minutes)
Azimuth
Elevation
Range (km)
Doppler Factor

Next 0 passes for location: London (51.5072 / 0.1276)

Sorry there are no passes over London.